Content
SEND FEEDBACK

Daily
Averages
Monthly
Summary
United States of America

UMATAC, GUAM


Home > North America > United States > Guam
Elevation: 190 feet     Latitude: 13 17N     Longitude: 144 40E

WEATHER
 
SELECT A DAY
Number of Records: 342,554;   Date Range: 1/1/95 - 9/16/14
 
SHARE

PRINT THIS DATA

[ ← Previous Day ]
WEATHER ALMANAC - MARCH 8, 2013
[ Next Day → ]
[ °C ]   °F
Weather ElementAverageHighLow
Temperature79.2 °F84.4 °F (10:55 am)75.2 °F (5:20 am)
Dewpoint71.8 °F73.4 °F (6:45 am)71.1 °F (1:55 am)
Humidity78.3 %89 % (5:20 am)65 % (10:55 am)
Barometer29.89 in29.95 in (8:50 am)29.81 in (3:55 pm)
Wind Speed15.6 mph20.7 mph (8:50 am)
Wind Gust24.2 mph (2:55 am)
Weather ElementAverage
Visibility9.9 mi
Wind DirectionENE (81.5 °)

Weather ElementTotal
Precipitation---
Cooling Degree Days14.8 (Base 65)
Growing Degree Days29.8 (Base 50)
Averaged from 52 records on March 8, 2013
WEATHER CONDITIONS BREAKOUT
WIND DIRECTION BREAKOUT
WEATHER BY HOUR - MARCH 8, 2013
[ °C ]   °F
Local TimeTemperatureDewpointHumidityBarometerVisibilityWind DirectionWind SpeedGust SpeedPrecipitationEventsConditions
1:55 AM77.5 °F71.1 °F80 %29.89 in10.0 miENE (70°)17.3 mphClear
2:55 AM77.4 °F71.1 °F81 %29.87 in10.0 miENE (70°)17.3 mph24.2 mphClear
3:55 AM77.4 °F71.2 °F81 %29.86 in10.0 miENE (70°)15.0 mphPartly Cloudy
4:11 AM77.0 °F71.6 °F83 %29.87 in9.0 miENE (70°)13.8 mphRainLight Rain
4:22 AM77.0 °F71.6 °F83 %29.87 in10.0 miENE (70°)17.3 mph23.0 mphScattered Clouds
4:32 AM77.0 °F71.6 °F83 %29.87 in10.0 miENE (70°)17.3 mph23.0 mphMostly Cloudy
4:39 AM77.0 °F71.6 °F83 %29.87 in10.0 miEast (80°)17.3 mph21.9 mphLight Drizzle
4:55 AM76.5 °F72.1 °F86 %29.87 in8.0 miEast (90°)16.1 mph0.00 inRainLight Rain
5:20 AM75.2 °F71.6 °F89 %29.88 in10.0 miENE (70°)15.0 mphMostly Cloudy
5:55 AM76.3 °F72.3 °F87 %29.88 in10.0 miEast (80°)17.3 mph0.00 inPartly Cloudy
6:45 AM77.0 °F73.4 °F89 %29.91 in10.0 miEast (80°)18.4 mph24.2 mphMostly Cloudy
6:55 AM77.4 °F73.0 °F86 %29.91 in10.0 miEast (80°)13.8 mph24.2 mphMostly Cloudy
7:12 AM77.0 °F71.6 °F83 %29.91 in10.0 miEast (80°)17.3 mph21.9 mphMostly Cloudy
7:15 AM77.0 °F71.6 °F83 %29.92 in10.0 miEast (80°)19.6 mphMostly Cloudy
7:17 AM78.8 °F71.6 °F78 %29.92 in10.0 miEast (80°)16.1 mphMostly Cloudy
7:20 AM78.8 °F71.6 °F78 %29.92 in10.0 miEast (90°)17.3 mphMostly Cloudy
7:22 AM78.8 °F71.6 °F78 %29.92 in10.0 miEast (80°)16.1 mphMostly Cloudy
7:29 AM78.8 °F71.6 °F78 %29.92 in10.0 miEast (80°)18.4 mphLight Drizzle
7:38 AM78.8 °F71.6 °F78 %29.93 in10.0 miEast (80°)18.4 mphScattered Clouds
7:55 AM79.2 °F71.8 °F78 %29.93 in10.0 miEast (80°)19.6 mph24.2 mph0.00 inPartly Cloudy
8:50 AM80.6 °F73.4 °F79 %29.95 in10.0 miEast (90°)20.7 mphMostly Cloudy
8:52 AM80.6 °F73.4 °F79 %29.94 in10.0 miEast (90°)19.6 mphScattered Clouds
8:53 AM80.6 °F73.4 °F79 %29.95 in10.0 miEast (90°)18.4 mphMostly Cloudy
8:55 AM80.6 °F72.7 °F77 %29.95 in10.0 miEast (90°)18.4 mphMostly Cloudy
9:19 AM82.4 °F71.6 °F70 %29.95 in10.0 miEast (80°)18.4 mph24.2 mphMostly Cloudy
9:55 AM82.8 °F71.2 °F68 %29.94 in10.0 miEast (90°)19.6 mphClear
10:55 AM84.4 °F71.2 °F65 %29.92 in10.0 miEast (100°)18.4 mph23.0 mphClear
11:55 AM84.2 °F72.5 °F68 %29.90 in10.0 miEast (80°)18.4 mphClear
12:55 PM84.0 °F72.0 °F67 %29.87 in10.0 miEast (90°)17.3 mphClear
1:55 PM84.4 °F72.7 °F68 %29.84 in10.0 miENE (70°)16.1 mphPartly Cloudy
2:55 PM84.2 °F72.0 °F67 %29.82 in10.0 miENE (70°)17.3 mphClear
3:55 PM83.3 °F72.5 °F70 %29.81 in10.0 miEast (80°)16.1 mphPartly Cloudy
4:55 PM81.7 °F72.1 °F73 %29.81 in10.0 miEast (80°)17.3 mphClear
5:55 PM79.9 °F72.0 °F77 %29.83 in10.0 miENE (70°)15.0 mphClear
6:55 PM78.1 °F71.2 °F79 %29.85 in10.0 miEast (80°)12.7 mphClear
7:24 PM78.8 °F71.6 °F78 %29.86 in10.0 miEast (80°)13.8 mphMostly Cloudy
7:29 PM78.8 °F71.6 °F78 %29.86 in10.0 miEast (80°)12.7 mphScattered Clouds
7:43 PM78.8 °F71.6 °F78 %29.86 in10.0 miEast (80°)11.5 mphMostly Cloudy
7:47 PM78.8 °F71.6 °F78 %29.86 in10.0 miEast (80°)12.7 mphScattered Clouds
7:55 PM78.1 °F71.2 °F79 %29.87 in10.0 miEast (90°)15.0 mphPartly Cloudy
8:15 PM78.8 °F71.6 °F78 %29.87 in10.0 miEast (90°)13.8 mphMostly Cloudy
8:26 PM78.8 °F71.6 °F78 %29.88 in10.0 miEast (90°)11.5 mphScattered Clouds
8:28 PM78.8 °F71.6 °F78 %29.88 in10.0 miEast (80°)13.8 mphMostly Cloudy
8:44 PM78.8 °F71.6 °F78 %29.88 in10.0 miEast (90°)12.7 mphScattered Clouds
8:55 PM77.9 °F72.0 °F82 %29.88 in10.0 miEast (90°)10.4 mphScattered Clouds
8:57 PM78.8 °F71.6 °F78 %29.89 in10.0 miEast (90°)11.5 mphMostly Cloudy
9:20 PM78.8 °F71.6 °F78 %29.89 in10.0 miEast (100°)11.5 mphScattered Clouds
9:55 PM78.1 °F71.4 °F80 %29.90 in10.0 miEast (80°)11.5 mphScattered Clouds
9:57 PM78.8 °F71.6 °F78 %29.90 in10.0 miEast (80°)11.5 mphMostly Cloudy
10:12 PM78.8 °F71.6 °F78 %29.91 in10.0 miEast (80°)12.7 mphScattered Clouds
10:55 PM77.7 °F71.1 °F80 %29.90 in10.0 miEast (80°)12.7 mphPartly Cloudy
11:55 PM77.2 °F71.2 °F82 %29.91 in10.0 miEast (80°)11.5 mphClear
Hourly data recorded from PGUA, located miles away from Umatac, Guam







STORIES FROM OUR PARTNERS